Regional Weather Roundup
Issued by NWS Lake Charles, LA

Home | Current Version | Previous Version | Text Only | Print | Product List | Glossary On
Versions: 1 2 3 4 5 6 7 8 9 10 11 12 13 14 15 16 17 18 19 20 21 22 23 24 25 26 27 28
307
ASUS44 KLCH 221310
RWRLCH
RWRLCH
REGIONAL WEATHER ROUNDUP
NATIONAL WEATHER SERVICE LAKE CHARLES LA
800 AM CDT FRI MAY 22 2015

Note: "fair" indicates few or no clouds below 12,000 feet with no
significant weather and/or obstructions to visibility.


ACROSS SOUTHEAST TEXAS

CITY           SKY/WX    TMP DP  RH WIND       PRES   REMARKS
BEAUMONT       CLOUDY    63  61  93 NE9       30.15R FOG
BEAUMONT CITY  CLOUDY    62  60  95 NE7       30.16F
ORANGE         CLOUDY    62  59  90 N5        30.18R
JASPER         CLOUDY    60  57  88 NE6       30.21S
$$

ACROSS CENTRAL LOUISIANA

CITY           SKY/WX    TMP DP  RH WIND       PRES   REMARKS
LEESVILLE      CLOUDY    56  54  91 VRB7      30.19R
FULLERTON      CLOUDY    59  53  80 VRB3      30.17R
ALEXANDRIA INT CLOUDY    58  54  86 NE8       30.19S
ESLER FIELD    CLOUDY    61  54  77 NE8       30.20S
DERIDDER       CLOUDY    57  55  91 NE6       30.20R
OAKDALE        CLOUDY    59  56  89 NE8       30.18S
OPELOUSAS      CLOUDY    60  57  91 NE7       30.18F
$$

ACROSS SOUTHWEST AND SOUTH CENTRAL LOUISIANA

CITY           SKY/WX    TMP DP  RH WIND       PRES   REMARKS
SULPHUR        CLOUDY    64  61  92 N6        30.17R
LAKE CHARLES   PTSUNNY   63  58  83 NE14      30.15S
CHENNAULT INT  NOT AVBL
CAMERON PHI    CLOUDY    64  61  88 NE14      30.16S
DEQUINCY       CLOUDY    59  59 100 NE3       30.17R
JENNINGS       CLOUDY    61  58  90 NE10      30.17R
LAFAYETTE      CLOUDY    64  60  87 NE10      30.18R
NEW IBERIA     CLOUDY    66  62  87 NE13      30.17R
ABBEVILLE      CLOUDY    63  61  94 N10       30.17R
PATTERSON      NOT AVBL
SALT POINT       N/A     69  66  90 VRB3      30.13S
$$

SELECTED SITES ACROSS THE REGION

CITY           SKY/WX    TMP DP  RH WIND       PRES   REMARKS
HOUSTON BUSH   CLOUDY    66  64  93 NE12      30.13R
HOUSTON HOBBY  CLOUDY    68  65  90 E14       30.11R
GALVESTON      CLOUDY    69  67  93 NE16      30.12S
COLLEGE STAT   CLOUDY    65  64  97 NE12      30.12R FOG
CONROE         CLOUDY    63  61  93 E7        30.14S
HUNTSVILLE     CLOUDY    62  61  96 E7        30.15S
LUFKIN         CLOUDY    62  57  83 NE7       30.18R
SHREVEPORT     CLOUDY    57  51  80 E13       30.21F
MONROE         SUNNY     56  51  84 NE8       30.26R
NATCHEZ MS     CLOUDY    57  52  82 NE8       30.22R
BATON ROUGE    CLOUDY    64  60  87 NE6       30.18R
N.O. INTL ARPT CLOUDY    68  62  81 NE16      30.17R
SLIDELL        CLOUDY    63  58  83 N13       30.18R
$$

MARINE REPORTS

STATION/POSITION TIME  TEMP    WIND        PRES    VSBY  WAVE
                       AIR SEA DIR/SP/G                  HT/PER
                 (UTC) (F)     (DEG/KT/KT) (MB)    (MI)  (FT/S)
BUOY 30 S HIGH I 1250   73 80   60/ 16/ 17 1018.9R         4/ 5
SEA RIM ST PARK  1300   64      40/  8/ 12 1021.3R
PORT ARTHUR      1200      77   40/  3/  6 1020.7R
SABINE PASS N    1200   64 78   40/ 10/ 14 1020.5R
TEXAS POINT      NOT AVBL
CALCASIEU PASS   1200   62 80   70/ 13/ 17   N/A
LK CHARLES BEACH 1200   61 79              1021.1R
MARSH ISLAND     1200   70      50/ 15/ 18   N/A           1
FRESH WATER LOCK 1200   66 82   40/  9/ 12 1020.3R
AMERADA PASS     1200   69 75   60/  4/  9 1020.4R
$$



USA.gov is the U.S. government's official web portal to all federal, state and local government web resources and services.